Regional Weather Roundup
Issued by NWS

Home | Current Version | Previous Version | Graphics & Text | Print | Product List | Glossary On
Versions: 1 2 3 4 5 6 7 8 9 10 11 12 13 14 15 16 17 18 19 20 21 22 23 24 25 26 27 28 29 30 31 32 33 34 35 36 37 38 39 40 41 42 43 44 45 46 47 48 49 50
000
ASUS43 KMKX 120610
RWRWI

WISCONSIN REGIONAL WEATHER ROUNDUP
NATIONAL WEATHER SERVICE MILWAUKEE/SULLIVAN WI
1200 AM CST FRI FEB 12 2016

NOTE: "FAIR" INDICATES FEW OR NO CLOUDS BELOW 12,000 FEET WITH NO
SIGNIFICANT WEATHER AND/OR OBSTRUCTIONS TO VISIBILITY.

WIZ001-002-006>008-014>016-023>028-120700-
NORTHWEST WISCONSIN

CITY           SKY/WX    TMP DP  RH WIND       PRES   REMARKS
SUPERIOR ARPT  CLOUDY    12   0  59 NW15      30.17S WCI  -4
6HR MIN TEMP:  12; 6HR MAX TEMP:  15;

ASHLAND        CLOUDY    13   1  59 W8        30.12F WCI   2
6HR MIN TEMP:  12; 6HR MAX TEMP:  13;

HAYWARD        CLOUDY    12   1  61 W6        30.12F WCI   3
6HR MIN TEMP:  12; 6HR MAX TEMP:  13;

SIREN          CLOUDY    14   8  78 W6        30.18S WCI   5
6HR MIN TEMP:  13; 6HR MAX TEMP:  14;

CUMBERLAND     CLOUDY    12   5  73 W9        30.14F WCI   0
RICE LAKE      CLOUDY    13   6  72 W7        30.17F WCI   3
6HR MIN TEMP:  13; 6HR MAX TEMP:  14;

CHETEK         CLOUDY    13   5  70 W5        30.16F WCI   5
6HR MIN TEMP:  13; 6HR MAX TEMP:  13;

LADYSMITH      CLOUDY    13   4  65 W9        30.14F WCI   1
6HR MIN TEMP:  13; 6HR MAX TEMP:  14;

EAU CLAIRE     CLOUDY    14   4  64 W9        30.18F WCI   2
6HR MIN TEMP:  14; 6HR MAX TEMP:  15;

MENOMONIE      CLOUDY    16   6  65 W7        30.19F WCI   6
6HR MIN TEMP:  15; 6HR MAX TEMP:  17;

NEW RICHMOND   CLOUDY    13   8  80 W8        30.19F WCI   2
6HR MIN TEMP:  13; 6HR MAX TEMP:  15;

OSCEOLA        CLOUDY    15  11  83 W8        30.23S WCI   4
6HR MIN TEMP:  15; 6HR MAX TEMP:  16;

$$

WIZ003>005-009-010-017-018-120700-
NORTH CENTRAL WISCONSIN

CITY           SKY/WX    TMP DP  RH WIND       PRES   REMARKS
MANITOWISH WTR CLOUDY     8  -1  64 W8        30.03F WCI  -4
6HR MIN TEMP:   8; 6HR MAX TEMP:  11;

ARBOR VITAE    CLOUDY    11   0  59 W8        30.03F WCI   0
6HR MIN TEMP:  11; 6HR MAX TEMP:  14;

WOODRUFF       CLOUDY    11   0  59 W8        30.03F WCI   0
6HR MIN TEMP:  11; 6HR MAX TEMP:  14;

RHINELANDER    CLOUDY    10  -2  58 W12       30.04F WCI  -5
6HR MIN TEMP:  10; 6HR MAX TEMP:  13;

EAGLE RIVER    CLOUDY    10  -5  52 W10G17    30.02F WCI  -4
LAND O LAKES   CLOUDY    10  -2  60 W8        30.01F WCI  -3
6HR MIN TEMP:   8; 6HR MAX TEMP:  12;

PHILLIPS       CLOUDY    10  -1  62 W6        30.08S WCI   0
6HR MIN TEMP:  10; 6HR MAX TEMP:  12;

TOMAHAWK       CLOUDY    10  -1  60 W7        30.08F WCI  -1
6HR MIN TEMP:  10; 6HR MAX TEMP:  13;

MEDFORD        CLOUDY    11   1  62 W12       30.08F WCI  -3
6HR MIN TEMP:  11; 6HR MAX TEMP:  11;

MERRILL        CLOUDY    12  -1  57 W12       30.10F WCI  -2
6HR MIN TEMP:  11; 6HR MAX TEMP:  12;

$$

WIZ029-030-035-036-043>047-120700-
CENTRAL WISCONSIN

CITY           SKY/WX    TMP DP  RH WIND       PRES   REMARKS
WAUSAU         CLOUDY    13   1  59 W15       30.09F WCI  -3
6HR MIN TEMP:  13; 6HR MAX TEMP:  14;

MOSINEE        CLOUDY    12   1  62 CALM      30.12F
MARSHFIELD     CLOUDY    13   0  56 W10       30.11F WCI   0
6HR MIN TEMP:  13; 6HR MAX TEMP:  15;

STEVENS POINT  CLOUDY    13  -1  54 W7        30.13F WCI   2
6HR MIN TEMP:  12; 6HR MAX TEMP:  13;

WAUPACA        CLOUDY    17   1  48 W9        30.15F WCI   6
6HR MIN TEMP:  15; 6HR MAX TEMP:  18;

WAUTOMA        CLOUDY    15   0  51 W8        30.17F WCI   4
6HR MIN TEMP:  13; 6HR MAX TEMP:  16;

WISC RAPIDS    CLOUDY    14  -1  51 W8        30.16F WCI   3
6HR MIN TEMP:  14; 6HR MAX TEMP:  16;

CAMP DOUGLAS   CLOUDY    14   1  57 W8        30.17F WCI   3
6HR MIN TEMP:  14; 6HR MAX TEMP:  16;

$$

WIZ011>013-019>022-031-037>040-048>050-120700-
NORTHEAST WISCONSIN

CITY           SKY/WX    TMP DP  RH WIND       PRES   REMARKS
ANTIGO         CLOUDY    10  -1  60 W9        30.06F WCI  -3
6HR MIN TEMP:   9; 6HR MAX TEMP:  10;

SHAWANO        CLOUDY    17  -1  45 W6        30.13F WCI   9
6HR MIN TEMP:  16; 6HR MAX TEMP:  17;

OCONTO         CLOUDY    15   0  51 W8        30.12F WCI   4
6HR MIN TEMP:  13; 6HR MAX TEMP:  15;

STURGEON BAY   CLOUDY    14   0  52 W14       30.12F WCI  -1
6HR MIN TEMP:  12; 6HR MAX TEMP:  14;

GREEN BAY      CLOUDY    15   1  53 W8        30.14F WCI   4
6HR MIN TEMP:  12; 6HR MAX TEMP:  15;

MANITOWOC      CLOUDY    16   2  54 W10       30.15F WCI   4
6HR MIN TEMP:  10; 6HR MAX TEMP:  16;

APPLETON       CLOUDY    16   0  48 SW8       30.12F WCI   5
CLINTONVILLE   CLOUDY    18   0  45 W9        30.13F WCI   6
OSHKOSH        CLOUDY    15   0  51 W9        30.15F WCI   3
6HR MIN TEMP:  10; 6HR MAX TEMP:  15;

$$

WIZ032>034-041-042-053>061-120700-
SOUTHWEST WISCONSIN

CITY           SKY/WX    TMP DP  RH WIND       PRES   REMARKS
LA CROSSE      CLOUDY    15   2  56 W6        30.22F WCI   6
6HR MIN TEMP:  15; 6HR MAX TEMP:  16;

SPARTA         CLOUDY    14   3  61 W5        30.21F WCI   6
6HR MIN TEMP:  14; 6HR MAX TEMP:  17;

VIROQUA        CLOUDY    12   4  69 W6        30.17F WCI   2
6HR MIN TEMP:  12; 6HR MAX TEMP:  13;

BOSCOBEL       CLOUDY    15   3  59 SW6       30.24F WCI   6
6HR MIN TEMP:  12; 6HR MAX TEMP:  16;

PRAIRIE DU CHI CLOUDY    15   4  62 CALM      30.24F
6HR MIN TEMP:  13; 6HR MAX TEMP:  16;

PLATTEVILLE    CLOUDY    14   5  67 W5        30.20F WCI   6
6HR MIN TEMP:  12; 6HR MAX TEMP:  16;

$$

WIZ056-057-062-063-064-067-068-120700-
SOUTH CENTRAL WISCONSIN

CITY           SKY/WX    TMP DP  RH WIND       PRES   REMARKS
REEDSBURG      CLOUDY    14   1  56 W7        30.19F WCI   4
6HR MIN TEMP:  14; 6HR MAX TEMP:  16;

BARABOO/DELLS  CLOUDY    14   0  53 W8        30.18F WCI   3
6HR MIN TEMP:  14; 6HR MAX TEMP:  15;

LONE ROCK      CLOUDY    15   3  59 W6        30.23F WCI   6
6HR MIN TEMP:  13; 6HR MAX TEMP:  16;

MINERAL POINT  CLOUDY    16   5  62 W5        30.18F WCI   9
MADISON        CLOUDY    16   1  51 W6        30.20S WCI   7
6HR MIN TEMP:  14; 6HR MAX TEMP:  16;

MIDDLETON      CLOUDY    17   4  57 W9        30.20F WCI   6
6HR MIN TEMP:  15; 6HR MAX TEMP:  18;

WATERTOWN      CLOUDY    16   4  61 SW3       30.19S
6HR MIN TEMP:  11; 6HR MAX TEMP:  16;

MONROE         CLOUDY    18   5  57 W12       30.18F WCI   5
JANESVILLE     CLOUDY    19   5  53 W5        30.20F WCI  13
$$

WIZ051-052-058>065-066-070>072-120700-
SOUTHEAST WISCONSIN

CITY           SKY/WX    TMP DP  RH WIND       PRES   REMARKS
MILWAUKEE      CLOUDY    17   0  47 W9        30.20F WCI   6
6HR MIN TEMP:  15; 6HR MAX TEMP:  17;

WAUKESHA       CLOUDY    14   1  57 SW5       30.19F WCI   6
MILWAUKEE/TIMM CLOUDY    18   0  45 W8        30.20F WCI   7
RACINE         CLOUDY    17   5  59 W7        30.22F WCI   8
6HR MIN TEMP:  12; 6HR MAX TEMP:  17;

BURLINGTON     CLOUDY    15   5  64 SW3       30.20F
6HR MIN TEMP:   8; 6HR MAX TEMP:  16;

KENOSHA        CLOUDY    17   7  64 W8        30.21F WCI   7
6HR MIN TEMP:  11; 6HR MAX TEMP:  17;

FOND DU LAC    CLOUDY    15   2  56 SW9       30.16F WCI   3
6HR MIN TEMP:  10; 6HR MAX TEMP:  15;

SHEBOYGAN      CLOUDY    16   1  51 W13       30.16F WCI   2
6HR MIN TEMP:   9; 6HR MAX TEMP:  16;

WEST BEND      CLOUDY    16   1  53 CALM      30.17F
JUNEAU         CLOUDY    14   3  61 SW10      30.19F WCI   2
6HR MIN TEMP:   9; 6HR MAX TEMP:  14;

$$

LSZ147-162-120700-
LAKE SUPERIOR

STATION/POSITION TIME  TEMP    WIND        PRES    WAVE
                       AIR SEA DIR/SP/G            HT/PER
                 (UTC) (F)     (DEG/KT/KT) (MB)    (FT/S)
DEVILS ISLAND    0600   15     300/ 22/ 28 1020.9F
PORT WING        0500   15     300/ 12/ 21 1021.0
SAXON HARBOR     0500   13                 1020.0F
$$

LMZ867-665-643>646-120700-
LAKE MICHIGAN

STATION/POSITION TIME  TEMP    WIND        PRES    WAVE
                       AIR SEA DIR/SP/G            HT/PER
                 (UTC) (F)   C1F1C2F2C3F3C4F4C5F5C6F6C7F7C8M1C9M2Ca!


USA.gov is the U.S. government's official web portal to all federal, state and local government web resources and services.